Belvidere, Illinois, United States (61008)
Lat: 42.26N, Lon: 88.84W
Wx Zone: ILZ004
Local Info
Past Weather Observations for Monday, November 17, 2014

NOTE: This archive is for the closest National Weather Service station to Belvidere. Information may differ from the station used for current weather conditions.

Click here for Long-term Archive

Time Weather Temperature Dewpoint Humidity Pressure Winds Precip Visibility
23:54
Clear
10°F / -12°C 3°F / -16°C 72% 30.01 in
(1016 mb)
W 16.1 mph
(W 26 kph)
- 10SM
22:54
Clear
10°F / -12°C 3°F / -16°C 72% 30.01 in
(1016 mb)
W 17.3 mph
(W 28 kph)
- 10SM
21:54
Partly Cloudy
10°F / -12°C 3°F / -16°C 72% 30.01 in
(1016 mb)
W 11.5 mph
(W 19 kph)
- 10SM
20:54
Overcast
10°F / -12°C 3°F / -16°C 72% 30.01 in
(1016 mb)
W 12.7 mph
(W 20 kph)
- 10SM
19:54
Partly Cloudy
10°F / -12°C 3°F / -16°C 72% 30.01 in
(1016 mb)
W 13.8 mph
(W 22 kph)
- 10SM
18:54
Mostly Cloudy
12°F / -11°C 3°F / -16°C 67% 30.01 in
(1016 mb)
W 16.1 mph
(W 26 kph)
0.00 in
(0.00 mm)
8SM
18:26
Mostly Cloudy
Light Snow
12°F / -11°C 3°F / -16°C 67% 29.98 in
(1015 mb)
W 17.3 mph
(W 28 kph)
0.00 in
(0.00 mm)
7SM
18:07
Overcast
Light Snow
12°F / -11°C 5°F / -15°C 73% 29.98 in
(1015 mb)
W 12.7 mph
(W 20 kph)
0.00 in
(0.00 mm)
5SM
17:54
Overcast
Light Snow
12°F / -11°C 7°F / -14°C 79% 29.98 in
(1015 mb)
W 12.7 mph
(W 20 kph)
0.00 in
(0.00 mm)
2SM
17:30
Overcast
Light Snow
12°F / -11°C 7°F / -14°C 79% 29.98 in
(1015 mb)
W 15 mph
(W 24 kph)
0.00 in
(0.00 mm)
3SM
17:08
Overcast
Light Snow
12°F / -11°C 7°F / -14°C 79% 29.98 in
(1015 mb)
WNW 18.4 mph
(WNW 30 kph)
0.00 in
(0.00 mm)
1 3/4SM
16:54
Overcast
Light Snow
14°F / -10°C 5°F / -15°C 67% 29.95 in
(1014 mb)
W 20.7 mph
(W 33 kph)
0.00 in
(0.00 mm)
7SM
16:16
Overcast
Light Snow
14°F / -10°C 7°F / -14°C 73% 29.95 in
(1014 mb)
W 24.2 mph
(W 39 kph)
0.00 in
(0.00 mm)
2SM
15:54
Overcast
Light Snow
14°F / -10°C 5°F / -15°C 67% 29.92 in
(1013 mb)
W 25.3 mph
(W 41 kph)
0.00 in
(0.00 mm)
7SM
15:46
Overcast
Light Snow
14°F / -10°C 7°F / -14°C 73% 29.92 in
(1013 mb)
W 18.4 mph
(W 30 kph)
0.00 in
(0.00 mm)
2SM
15:32
Overcast
Light Snow
14°F / -10°C 7°F / -14°C 73% 29.92 in
(1013 mb)
W 15 mph
(W 24 kph)
0.00 in
(0.00 mm)
1SM
15:27
Overcast
Light Snow
14°F / -10°C 5°F / -15°C 67% 29.92 in
(1013 mb)
W 18.4 mph
(W 30 kph)
0.00 in
(0.00 mm)
7SM
15:01
Overcast
Light Snow
16°F / -9°C 7°F / -14°C 67% 29.92 in
(1013 mb)
W 17.3 mph
(W 28 kph)
0.00 in
(0.00 mm)
5SM
14:54
Overcast
Light Snow
16°F / -9°C 5°F / -15°C 62% 29.92 in
(1013 mb)
W 18.4 mph
(W 30 kph)
0.00 in
(0.00 mm)
9SM
14:38
Overcast
Light Snow
16°F / -9°C 3°F / -16°C 57% 29.89 in
(1012 mb)
W 21.9 mph
(W 35 kph)
0.00 in
(0.00 mm)
10SM
14:09
Overcast
Light Snow
16°F / -9°C 7°F / -14°C 67% 29.89 in
(1012 mb)
W 23 mph
(W 37 kph)
0.00 in
(0.00 mm)
7SM
13:54
Overcast
Light Snow
16°F / -9°C 5°F / -15°C 62% 29.89 in
(1012 mb)
W 23 mph
(W 37 kph)
0.00 in
(0.00 mm)
9SM
13:50
Overcast
Hazy
52°F / 11°C 46°F / 8°C 82% 29.59 in
(1002 mb)
SSW 9.2 mph
(SSW 15 kph)
- 5SM
12:54
Overcast
Light Snow
16°F / -9°C 3°F / -16°C 57% 29.89 in
(1012 mb)
WNW 19.6 mph
(WNW 32 kph)
0.00 in
(0.00 mm)
10SM
12:39
Overcast
Light Snow
16°F / -9°C 3°F / -16°C 57% 29.89 in
(1012 mb)
WNW 21.9 mph
(WNW 35 kph)
0.00 in
(0.00 mm)
10SM
11:54
Overcast
14°F / -10°C 3°F / -16°C 62% 29.89 in
(1012 mb)
WNW 20.7 mph
(WNW 33 kph)
0.00 in
(0.00 mm)
10SM
11:06
Overcast
Light Snow
14°F / -10°C 7°F / -14°C 73% 29.89 in
(1012 mb)
WNW 17.3 mph
(WNW 28 kph)
0.00 in
(0.00 mm)
7SM
10:54
Overcast
Light Snow
14°F / -10°C 7°F / -14°C 73% 29.89 in
(1012 mb)
WNW 15 mph
(WNW 24 kph)
0.00 in
(0.00 mm)
2 1/2SM
09:54
Overcast
Light Snow
16°F / -9°C 9°F / -13°C 73% 29.89 in
(1012 mb)
WNW 17.3 mph
(WNW 28 kph)
0.00 in
(0.00 mm)
7SM
09:34
Mostly Cloudy
Light Snow
16°F / -9°C 7°F / -14°C 67% 29.89 in
(1012 mb)
W 16.1 mph
(W 26 kph)
0.00 in
(0.00 mm)
10SM
08:54
Partly Cloudy
14°F / -10°C 7°F / -14°C 73% 29.89 in
(1012 mb)
WNW 13.8 mph
(WNW 22 kph)
- 10SM
07:54
Clear
12°F / -11°C 7°F / -14°C 79% 29.89 in
(1012 mb)
WNW 11.5 mph
(WNW 19 kph)
- 10SM
06:54
Partly Cloudy
10°F / -12°C 3°F / -16°C 72% 29.89 in
(1012 mb)
W 10.4 mph
(W 17 kph)
- 10SM
05:54
Partly Cloudy
10°F / -12°C 3°F / -16°C 72% 29.89 in
(1012 mb)
W 11.5 mph
(W 19 kph)
- 10SM
04:54
Partly Cloudy
10°F / -12°C 3°F / -16°C 72% 29.89 in
(1012 mb)
W 9.2 mph
(W 15 kph)
- 10SM
03:54
Partly Cloudy
10°F / -12°C 3°F / -16°C 72% 29.92 in
(1013 mb)
W 8.1 mph
(W 13 kph)
- 10SM
02:54
Partly Cloudy
10°F / -12°C 3°F / -16°C 72% 29.92 in
(1013 mb)
W 9.2 mph
(W 15 kph)
- 10SM
01:54
Clear
10°F / -12°C 5°F / -15°C 79% 29.92 in
(1013 mb)
W 11.5 mph
(W 19 kph)
- 10SM
00:54
Clear
12°F / -11°C 7°F / -14°C 79% 29.92 in
(1013 mb)
SSW 9.2 mph
(SSW 15 kph)
- 10SM
Time Weather Temperature Dewpoint Humidity Pressure Winds Precip Visibility


Weather for websites

WeatherForYou.com, LLC is not responsible for any damages or problems caused by this service. Current weather conditions are obtained from the closest station including government and personal stations which may have varying degrees of accuracy. Weather forecasts are derived from the NOAA NDFD. Like all things, this site belongs to Jesus Christ... He just trusts me to maintain it. If you have any questions or comments email webmaster@weatherforyou.com

Copyright © 2014, WeatherForYou.com LLC. All rights reserved.